User: anonymous   Login
Location: Eaton
(41.3139°N, 82.0207°W)
Time: 11:18:39
(UTC+00:00)
Language:

Cosmos 921 Rocket - Orbit

View from above orbital plane
View from above orbital plane
View from above satellite
View from above satellite

Ground track
Ground track

The orbit data is extracted from the following two-line orbital elements,

1 10096U 77055B   21260.09854358  .00000079  00000-0  10521-4 0  9992
2 10096  75.8331 120.9055 0043015 210.9131 148.9528 14.88776931393317
Epoch (UTC): 17 September 2021 02:21:54
Eccentricity: 0.0043015
inclination: 75.8331°
perigee height: 572 km
apogee height: 632 km
right ascension of ascending node: 120.9055°
argument of perigee: 210.9131°
revolutions per day: 14.88776931
mean anomaly at epoch: 148.9528°
orbit number at epoch: 39331

The dashed part of the orbit path shows where the satellite is in the earth's shadow,  

DLR